AFR1440 LFPG-LSGG

Flight info

Callsign AFR1440
Flight time 0h 53m
Altitude 27000
Route PILUL DCT PIMUP DCT PIXIS DCT PIBAT/N0408F230 DCT LUSAR
Aircraft A20N/M-SDE2E3FGHIRWXY/LB1

Departure

Time 2026-05-09 02:09
Airport Charles de Gaulle International Airport (LFPG)

Arrival

Time 2026-05-09 03:02
Airport Geneva International Airport (LSGG)
Time Latitude Longitude Altitude Speed Heading
2026-05-09 01:42 49.01240 2.53934 354 ft 0 kts 44°
2026-05-09 01:51 49.01229 2.53919 363 ft 2 kts 44°
2026-05-09 01:51 49.01219 2.53903 363 ft 2 kts 44°
2026-05-09 01:51 49.01208 2.53888 361 ft 2 kts 44°
2026-05-09 01:52 49.01198 2.53872 360 ft 2 kts 44°
2026-05-09 01:52 49.01188 2.53855 362 ft 2 kts 64°
2026-05-09 01:52 49.01183 2.53834 363 ft 2 kts 86°
2026-05-09 01:52 49.01183 2.53818 359 ft 0 kts 99°
2026-05-09 01:53 49.01183 2.53815 360 ft 0 kts 99°
2026-05-09 01:55 49.01182 2.53827 358 ft 5 kts 98°
2026-05-09 01:55 49.01178 2.53940 359 ft 14 kts 85°
2026-05-09 01:56 49.01213 2.54067 355 ft 13 kts 39°
2026-05-09 01:56 49.01305 2.54084 349 ft 12 kts 340°
2026-05-09 01:56 49.01364 2.54028 357 ft 11 kts 330°
2026-05-09 01:56 49.01419 2.53993 358 ft 5 kts 347°
2026-05-09 01:57 49.01432 2.53990 353 ft 0 kts 352°
2026-05-09 01:57 49.01447 2.53988 353 ft 4 kts 359°
2026-05-09 01:57 49.01485 2.53999 353 ft 7 kts 18°
2026-05-09 01:57 49.01537 2.54054 360 ft 11 kts 40°
2026-05-09 01:58 49.01570 2.54123 358 ft 13 kts 71°
2026-05-09 01:58 49.01537 2.54318 359 ft 17 kts 133°
2026-05-09 01:58 49.01502 2.54359 357 ft 8 kts 150°
2026-05-09 01:58 49.01427 2.54378 354 ft 14 kts 190°
2026-05-09 01:59 49.01320 2.54318 351 ft 19 kts 198°
2026-05-09 01:59 49.01239 2.54327 355 ft 9 kts 135°
2026-05-09 01:59 49.01209 2.54398 353 ft 8 kts 108°
2026-05-09 01:59 49.01207 2.54491 354 ft 8 kts 87°
2026-05-09 02:00 49.01209 2.54543 354 ft 2 kts 87°
2026-05-09 02:00 49.01214 2.54592 362 ft 8 kts 75°
2026-05-09 02:00 49.01258 2.54674 356 ft 12 kts 33°
2026-05-09 02:00 49.01349 2.54728 356 ft 15 kts 13°
2026-05-09 02:01 49.01446 2.54747 357 ft 14 kts 359°
2026-05-09 02:01 49.01552 2.54724 362 ft 17 kts 343°
2026-05-09 02:01 49.01645 2.54659 361 ft 16 kts 328°
2026-05-09 02:01 49.01724 2.54552 354 ft 16 kts 310°
2026-05-09 02:02 49.01780 2.54416 359 ft 11 kts 298°
2026-05-09 02:02 49.01806 2.54295 357 ft 14 kts 278°
2026-05-09 02:02 49.01810 2.54136 354 ft 17 kts 267°
2026-05-09 02:02 49.01798 2.53941 354 ft 20 kts 264°
2026-05-09 02:03 49.01788 2.53739 362 ft 19 kts 265°
2026-05-09 02:03 49.01778 2.53521 357 ft 22 kts 265°
2026-05-09 02:03 49.01764 2.53285 355 ft 19 kts 262°
2026-05-09 02:03 49.01753 2.53098 360 ft 14 kts 266°
2026-05-09 02:04 49.01747 2.52943 355 ft 16 kts 266°
2026-05-09 02:04 49.01736 2.52758 355 ft 19 kts 265°
2026-05-09 02:04 49.01725 2.52562 355 ft 19 kts 265°
2026-05-09 02:04 49.01721 2.52420 355 ft 7 kts 278°
2026-05-09 02:05 49.01763 2.52372 359 ft 10 kts 350°
2026-05-09 02:05 49.01846 2.52359 354 ft 14 kts 351°
2026-05-09 02:05 49.01890 2.52251 361 ft 14 kts 266°
2026-05-09 02:05 49.01881 2.52082 354 ft 18 kts 265°
2026-05-09 02:06 49.01871 2.51890 354 ft 11 kts 265°
2026-05-09 02:06 49.01863 2.51755 360 ft 15 kts 265°
2026-05-09 02:06 49.01854 2.51586 354 ft 16 kts 265°
2026-05-09 02:07 49.01900 2.51260 355 ft 11 kts 338°
2026-05-09 02:07 49.01933 2.51251 354 ft 2 kts 357°
2026-05-09 02:07 49.01958 2.51254 354 ft 6 kts 10°
2026-05-09 02:07 49.01988 2.51295 358 ft 7 kts 39°
2026-05-09 02:08 49.02038 2.51356 362 ft 11 kts 39°
2026-05-09 02:08 49.02073 2.51468 354 ft 13 kts 84°
2026-05-09 02:08 49.02096 2.51839 351 ft 71 kts 83°
2026-05-09 02:08 49.02156 2.52926 360 ft 131 kts 85°
2026-05-09 02:09 49.02210 2.54520 586 ft 158 kts 84°
2026-05-09 02:09 49.02273 2.56203 1145 ft 163 kts 85°
2026-05-09 02:09 49.02367 2.57954 1911 ft 163 kts 85°
2026-05-09 02:09 49.02501 2.59565 3170 ft 159 kts 83°
2026-05-09 02:10 49.02649 2.61319 3894 ft 176 kts 85°
2026-05-09 02:10 49.02749 2.63214 4514 ft 197 kts 87°
2026-05-09 02:10 49.02847 2.65487 4879 ft 235 kts 87°
2026-05-09 02:10 49.02968 2.68180 4971 ft 267 kts 87°
2026-05-09 02:11 49.03109 2.71014 4972 ft 269 kts 86°
2026-05-09 02:11 49.03257 2.73864 4974 ft 269 kts 86°
2026-05-09 02:11 49.03406 2.76689 4989 ft 270 kts 86°
2026-05-09 02:11 49.03556 2.79571 5302 ft 274 kts 86°
2026-05-09 02:12 49.03707 2.82487 6264 ft 277 kts 86°
2026-05-09 02:12 49.03858 2.85437 7363 ft 282 kts 86°
2026-05-09 02:12 49.04011 2.88453 8364 ft 290 kts 86°
2026-05-09 02:12 49.04167 2.91555 9392 ft 297 kts 86°
2026-05-09 02:13 49.04229 2.94690 10362 ft 303 kts 98°
2026-05-09 02:13 49.03585 2.97832 10900 ft 321 kts 122°
2026-05-09 02:13 49.02105 3.00455 11501 ft 331 kts 146°
2026-05-09 02:13 49.00047 3.01965 12456 ft 329 kts 168°
2026-05-09 02:14 48.97773 3.02203 13400 ft 330 kts 186°
2026-05-09 02:14 48.95498 3.01811 14278 ft 335 kts 189°
2026-05-09 02:14 48.93161 3.01437 15123 ft 340 kts 186°
2026-05-09 02:14 48.90770 3.01248 15959 ft 346 kts 184°
2026-05-09 02:15 48.88340 3.01219 16783 ft 352 kts 181°
2026-05-09 02:15 48.85874 3.01171 17595 ft 356 kts 186°
2026-05-09 02:15 48.83425 3.00658 18380 ft 359 kts 194°
2026-05-09 02:15 48.81002 2.99607 19071 ft 363 kts 201°
2026-05-09 02:16 48.78603 2.98341 19744 ft 367 kts 200°
2026-05-09 02:16 48.76218 2.97093 20413 ft 372 kts 200°
2026-05-09 02:16 48.73748 2.95810 21094 ft 377 kts 200°
2026-05-09 02:16 48.71270 2.94527 21748 ft 382 kts 199°
2026-05-09 02:17 48.68727 2.93213 22417 ft 386 kts 199°
2026-05-09 02:17 48.66184 2.91901 23079 ft 391 kts 199°
2026-05-09 02:17 48.63593 2.90565 23705 ft 396 kts 199°
2026-05-09 02:17 48.60965 2.89211 24293 ft 399 kts 199°
2026-05-09 02:18 48.58335 2.87856 24922 ft 400 kts 198°
2026-05-09 02:18 48.55680 2.86493 25461 ft 404 kts 198°
2026-05-09 02:18 48.53003 2.85119 26019 ft 407 kts 198°
2026-05-09 02:18 48.50334 2.83751 26571 ft 410 kts 198°
2026-05-09 02:19 48.47595 2.82474 26920 ft 413 kts 193°
2026-05-09 02:19 48.44747 2.81706 27036 ft 419 kts 186°
2026-05-09 02:19 48.41800 2.81516 27038 ft 428 kts 178°
2026-05-09 02:19 48.38820 2.81738 27032 ft 426 kts 176°
2026-05-09 02:20 48.35870 2.81962 27033 ft 424 kts 176°
2026-05-09 02:20 48.32919 2.82175 27043 ft 425 kts 177°
2026-05-09 02:20 48.30009 2.82587 27038 ft 424 kts 168°
2026-05-09 02:20 48.27188 2.83853 27030 ft 424 kts 156°
2026-05-09 02:21 48.24597 2.85990 27029 ft 424 kts 144°
2026-05-09 02:21 48.22278 2.88657 27032 ft 424 kts 142°
2026-05-09 02:21 48.19943 2.91382 27039 ft 424 kts 142°
2026-05-09 02:21 48.17614 2.94088 27033 ft 422 kts 142°
2026-05-09 02:22 48.15298 2.96768 27027 ft 420 kts 142°
2026-05-09 02:22 48.12969 2.99457 27038 ft 423 kts 142°
2026-05-09 02:22 48.10618 3.02165 27033 ft 427 kts 143°
2026-05-09 02:22 48.08183 3.04613 27028 ft 426 kts 150°
2026-05-09 02:23 48.05533 3.06609 27031 ft 426 kts 157°
2026-05-09 02:23 48.02789 3.08320 26868 ft 426 kts 157°
2026-05-09 02:23 48.00006 3.10074 27034 ft 443 kts 160°
2026-05-09 02:23 47.97110 3.11897 27012 ft 460 kts 160°
2026-05-09 02:24 47.94172 3.13745 27005 ft 463 kts 160°
2026-05-09 02:24 47.91197 3.15617 27004 ft 462 kts 160°
2026-05-09 02:24 47.88227 3.17484 27004 ft 463 kts 160°
2026-05-09 02:24 47.85283 3.19331 27003 ft 463 kts 160°
2026-05-09 02:25 47.82309 3.21192 27004 ft 462 kts 160°
2026-05-09 02:25 47.79346 3.23044 27004 ft 462 kts 160°
2026-05-09 02:25 47.76362 3.24905 27009 ft 462 kts 160°
2026-05-09 02:25 47.73436 3.26728 26995 ft 459 kts 160°
2026-05-09 02:26 47.70523 3.28540 26999 ft 458 kts 160°
2026-05-09 02:26 47.67574 3.30371 26999 ft 459 kts 160°
2026-05-09 02:26 47.64614 3.32207 26993 ft 459 kts 160°
2026-05-09 02:26 47.61696 3.34016 26994 ft 459 kts 160°
2026-05-09 02:27 47.58740 3.35848 26998 ft 461 kts 161°
2026-05-09 02:27 47.55768 3.37686 26993 ft 462 kts 161°
2026-05-09 02:27 47.52785 3.39529 26986 ft 460 kts 160°
2026-05-09 02:27 47.49858 3.41335 26989 ft 459 kts 160°
2026-05-09 02:28 47.46896 3.43160 26988 ft 460 kts 160°
2026-05-09 02:28 47.43935 3.44983 26988 ft 460 kts 161°
2026-05-09 02:28 47.41015 3.46779 26988 ft 460 kts 161°
2026-05-09 02:28 47.38056 3.48597 26985 ft 460 kts 161°
2026-05-09 02:29 47.35091 3.50416 26988 ft 460 kts 161°
2026-05-09 02:29 47.32127 3.52231 26972 ft 458 kts 160°
2026-05-09 02:29 47.29191 3.54026 26985 ft 456 kts 160°
2026-05-09 02:29 47.26294 3.55797 26987 ft 457 kts 160°
2026-05-09 02:30 47.23344 3.57599 26983 ft 457 kts 160°
2026-05-09 02:30 47.20397 3.59396 26982 ft 457 kts 160°
2026-05-09 02:30 47.17449 3.61192 26982 ft 457 kts 160°
2026-05-09 02:30 47.14515 3.62978 26978 ft 457 kts 160°
2026-05-09 02:31 47.11607 3.64746 26970 ft 457 kts 160°
2026-05-09 02:31 47.08667 3.66530 26980 ft 456 kts 160°
2026-05-09 02:31 47.05731 3.68311 26979 ft 456 kts 160°
2026-05-09 02:31 47.02788 3.70094 26978 ft 456 kts 160°
2026-05-09 02:32 46.99856 3.71868 26976 ft 456 kts 160°
2026-05-09 02:32 46.96975 3.73885 26974 ft 459 kts 150°
2026-05-09 02:32 46.94460 3.76729 26977 ft 463 kts 137°
2026-05-09 02:32 46.92400 3.80377 26977 ft 465 kts 123°
2026-05-09 02:33 46.90936 3.84601 26979 ft 466 kts 110°
2026-05-09 02:33 46.89916 3.89035 26972 ft 461 kts 107°
2026-05-09 02:33 46.88962 3.93512 26980 ft 462 kts 107°
2026-05-09 02:33 46.87940 3.97985 26979 ft 462 kts 109°
2026-05-09 02:34 46.86847 4.02412 26981 ft 462 kts 110°
2026-05-09 02:34 46.85710 4.06807 26983 ft 462 kts 110°
2026-05-09 02:34 46.84544 4.11207 26983 ft 465 kts 111°
2026-05-09 02:34 46.83379 4.15558 26978 ft 465 kts 111°
2026-05-09 02:35 46.82193 4.19977 26975 ft 465 kts 111°
2026-05-09 02:35 46.81020 4.24387 26973 ft 465 kts 109°
2026-05-09 02:35 46.80140 4.28913 26967 ft 464 kts 101°
2026-05-09 02:35 46.79480 4.33537 26969 ft 464 kts 101°
2026-05-09 02:36 46.78818 4.38142 26965 ft 464 kts 101°
2026-05-09 02:36 46.78158 4.42687 26975 ft 464 kts 101°
2026-05-09 02:36 46.77483 4.47306 26977 ft 464 kts 101°
2026-05-09 02:36 46.76805 4.51927 26976 ft 465 kts 101°
2026-05-09 02:37 46.76125 4.56547 26977 ft 465 kts 101°
2026-05-09 02:37 46.75444 4.61158 26978 ft 465 kts 101°
2026-05-09 02:37 46.74766 4.65732 26979 ft 465 kts 101°
2026-05-09 02:37 46.74081 4.70344 26979 ft 465 kts 101°
2026-05-09 02:38 46.73394 4.74956 26871 ft 465 kts 101°
2026-05-09 02:38 46.72705 4.79568 26619 ft 463 kts 101°
2026-05-09 02:38 46.72020 4.84139 26367 ft 460 kts 101°
2026-05-09 02:38 46.71337 4.88682 26117 ft 457 kts 101°
2026-05-09 02:39 46.70666 4.93139 25870 ft 454 kts 101°
2026-05-09 02:39 46.70031 4.97339 25639 ft 452 kts 101°
2026-05-09 02:39 46.69351 5.01824 25390 ft 450 kts 102°
2026-05-09 02:39 46.68682 5.06226 25153 ft 448 kts 102°
2026-05-09 02:40 46.68009 5.10644 24912 ft 446 kts 102°
2026-05-09 02:40 46.67334 5.15057 24673 ft 444 kts 102°
2026-05-09 02:40 46.66673 5.19377 24437 ft 441 kts 102°
2026-05-09 02:40 46.66013 5.23735 24209 ft 439 kts 101°
2026-05-09 02:41 46.65360 5.28077 23977 ft 437 kts 102°
2026-05-09 02:41 46.64714 5.32382 23741 ft 433 kts 102°
2026-05-09 02:41 46.64066 5.36670 23508 ft 431 kts 102°
2026-05-09 02:41 46.63427 5.40872 23064 ft 430 kts 103°
2026-05-09 02:42 46.62804 5.44963 22508 ft 428 kts 103°
2026-05-09 02:42 46.62155 5.49216 21914 ft 423 kts 103°
2026-05-09 02:42 46.61526 5.53293 21352 ft 418 kts 103°
2026-05-09 02:42 46.60887 5.57403 20777 ft 413 kts 104°
2026-05-09 02:43 46.60465 5.60103 20400 ft 409 kts 104°
2026-05-09 02:43 46.59631 5.65424 19657 ft 403 kts 104°
2026-05-09 02:43 46.59240 5.67920 19306 ft 401 kts 104°
2026-05-09 02:43 46.58629 5.71804 18758 ft 397 kts 104°
2026-05-09 02:44 46.58014 5.75699 18142 ft 394 kts 105°
2026-05-09 02:44 46.57208 5.79344 17631 ft 384 kts 119°
2026-05-09 02:44 46.55722 5.82498 17111 ft 373 kts 136°
2026-05-09 02:44 46.53737 5.84850 16585 ft 364 kts 148°
2026-05-09 02:45 46.51690 5.86902 16080 ft 359 kts 148°
2026-05-09 02:45 46.49637 5.88957 15571 ft 355 kts 148°
2026-05-09 02:45 46.47610 5.90986 15071 ft 350 kts 148°
2026-05-09 02:45 46.45685 5.92913 14602 ft 347 kts 148°
2026-05-09 02:46 46.43728 5.94871 14118 ft 343 kts 148°
2026-05-09 02:46 46.41766 5.96834 13617 ft 340 kts 148°
2026-05-09 02:46 46.39842 5.98757 13322 ft 329 kts 147°
2026-05-09 02:46 46.38034 6.00565 13106 ft 309 kts 147°
2026-05-09 02:47 46.36247 6.02198 12621 ft 298 kts 159°
2026-05-09 02:47 46.34253 6.02784 12322 ft 289 kts 183°
2026-05-09 02:47 46.32315 6.02154 12073 ft 287 kts 206°
2026-05-09 02:47 46.30716 6.00443 11828 ft 286 kts 225°
2026-05-09 02:48 46.29344 5.98428 11578 ft 283 kts 225°
2026-05-09 02:48 46.27975 5.96413 11326 ft 276 kts 225°
2026-05-09 02:48 46.26603 5.94399 11085 ft 283 kts 225°
2026-05-09 02:48 46.25226 5.92385 10834 ft 280 kts 225°
2026-05-09 02:49 46.23929 5.90497 10597 ft 280 kts 225°
2026-05-09 02:49 46.22558 5.88503 10358 ft 279 kts 225°
2026-05-09 02:49 46.21207 5.86538 10097 ft 271 kts 225°
2026-05-09 02:49 46.19912 5.84655 9764 ft 256 kts 225°
2026-05-09 02:50 46.18677 5.82865 9462 ft 258 kts 225°
2026-05-09 02:50 46.17344 5.80933 9126 ft 279 kts 225°
2026-05-09 02:50 46.16046 5.79051 8802 ft 275 kts 225°
2026-05-09 02:50 46.14736 5.77158 8471 ft 259 kts 225°
2026-05-09 02:51 46.13504 5.75378 8177 ft 244 kts 225°
2026-05-09 02:51 46.12340 5.73693 8097 ft 225 kts 225°
2026-05-09 02:51 46.11298 5.72186 8013 ft 212 kts 225°
2026-05-09 02:51 46.10184 5.70578 7918 ft 236 kts 225°
2026-05-09 02:52 46.09015 5.68894 7780 ft 236 kts 225°
2026-05-09 02:52 46.07850 5.67233 7654 ft 236 kts 224°
2026-05-09 02:52 46.06677 5.65587 7524 ft 237 kts 220°
2026-05-09 02:52 46.05282 5.64594 7538 ft 245 kts 192°
2026-05-09 02:53 46.03616 5.64714 7558 ft 242 kts 163°
2026-05-09 02:53 46.02241 5.65994 7441 ft 233 kts 133°
2026-05-09 02:53 46.01541 5.68074 7150 ft 235 kts 101°
2026-05-09 02:53 46.01605 5.70321 7004 ft 221 kts 82°
2026-05-09 02:54 46.01870 5.72388 6996 ft 204 kts 81°
2026-05-09 02:54 46.02114 5.74455 6988 ft 210 kts 84°
2026-05-09 02:54 46.02286 5.76532 6988 ft 209 kts 85°
2026-05-09 02:54 46.02507 5.78614 6939 ft 211 kts 73°
2026-05-09 02:55 46.03132 5.80380 6760 ft 187 kts 54°
2026-05-09 02:55 46.03898 5.81732 6564 ft 167 kts 47°
2026-05-09 02:55 46.04672 5.82900 6367 ft 158 kts 45°
2026-05-09 02:55 46.05460 5.84047 6176 ft 162 kts 45°
2026-05-09 02:56 46.06242 5.85188 5950 ft 158 kts 44°
2026-05-09 02:56 46.07015 5.86316 5737 ft 161 kts 44°
2026-05-09 02:56 46.07800 5.87462 5542 ft 160 kts 44°
2026-05-09 02:56 46.08571 5.88587 5332 ft 156 kts 44°
2026-05-09 02:57 46.09327 5.89692 5132 ft 154 kts 44°
2026-05-09 02:57 46.10070 5.90780 4928 ft 155 kts 44°
2026-05-09 02:57 46.10819 5.91871 4738 ft 157 kts 44°
2026-05-09 02:57 46.11580 5.92983 4516 ft 154 kts 44°
2026-05-09 02:58 46.12332 5.94082 4310 ft 153 kts 44°
2026-05-09 02:58 46.13060 5.95147 4112 ft 153 kts 44°
2026-05-09 02:58 46.13799 5.96227 3913 ft 152 kts 43°
2026-05-09 02:58 46.14542 5.97315 3714 ft 149 kts 44°
2026-05-09 02:59 46.15244 5.98343 3527 ft 140 kts 44°
2026-05-09 02:59 46.15912 5.99320 3342 ft 135 kts 43°
2026-05-09 02:59 46.16590 6.00311 3159 ft 138 kts 44°
2026-05-09 02:59 46.17264 6.01299 2976 ft 138 kts 42°
2026-05-09 03:00 46.17934 6.02282 2785 ft 134 kts 43°
2026-05-09 03:00 46.18597 6.03252 2622 ft 134 kts 44°
2026-05-09 03:00 46.19242 6.04198 2445 ft 132 kts 44°
2026-05-09 03:00 46.19868 6.05116 2270 ft 129 kts 45°
2026-05-09 03:01 46.20494 6.06034 2090 ft 126 kts 46°
2026-05-09 03:01 46.21117 6.06947 1916 ft 127 kts 46°
2026-05-09 03:01 46.21733 6.07863 1735 ft 128 kts 46°
2026-05-09 03:01 46.22356 6.08782 1567 ft 126 kts 46°
2026-05-09 03:02 46.22964 6.09665 1414 ft 124 kts 47°
2026-05-09 03:02 46.23505 6.10479 1384 ft 80 kts 44°
2026-05-09 03:02 46.23648 6.10702 1380 ft 12 kts 70°
2026-05-09 03:02 46.23640 6.10744 1375 ft 4 kts 156°
2026-05-09 03:03 46.23599 6.10730 1379 ft 9 kts 196°
2026-05-09 03:03 46.23534 6.10702 1379 ft 9 kts 197°
2026-05-09 03:03 46.23460 6.10670 1382 ft 12 kts 197°
2026-05-09 03:03 46.23384 6.10618 1382 ft 14 kts 214°
2026-05-09 03:04 46.23311 6.10575 1383 ft 12 kts 244°
2026-05-09 03:04 46.23294 6.10553 1385 ft 1 kts 149°
2026-05-09 03:04 46.23296 6.10584 1383 ft 2 kts 60°
2026-05-09 03:04 46.23303 6.10610 1381 ft 2 kts 73°
2026-05-09 03:05 46.23292 6.10591 1386 ft 4 kts 359°
2026-05-09 03:05 46.23269 6.10593 1383 ft 5 kts 12°
2026-05-09 03:05 46.23292 6.10605 1386 ft 2 kts 20°
2026-05-09 03:05 46.23299 6.10607 1381 ft 0 kts 14°